UTA1225 USSS-UWGG

Flight info

Callsign UTA1225
Flight time 1h 42m
Altitude 360
Route LUNAG M864 AGNOK T796 ORTIM L158 APTAR T787 OKSUD
Aircraft B738/M-SDE2FGIRWZ/S

Departure

Time 2026-04-26 14:46
Airport Koltsovo Airport (USSS)

Arrival

Time 2026-04-26 16:28
Airport Nizhny Novgorod / Strigino International Airport (UWGG)
Time Latitude Longitude Altitude Speed Heading
2026-04-26 14:29 56.74787 60.79809 775 ft 0 kts 180°
2026-04-26 14:40 56.74782 60.79809 773 ft 3 kts 180°
2026-04-26 14:40 56.74759 60.79810 773 ft 4 kts 173°
2026-04-26 14:40 56.74734 60.79848 773 ft 7 kts 111°
2026-04-26 14:41 56.74730 60.79964 773 ft 11 kts 91°
2026-04-26 14:41 56.74728 60.80097 773 ft 8 kts 105°
2026-04-26 14:41 56.74683 60.80145 773 ft 8 kts 154°
2026-04-26 14:41 56.74662 60.80235 773 ft 10 kts 91°
2026-04-26 14:42 56.74661 60.80461 773 ft 25 kts 90°
2026-04-26 14:42 56.74659 60.80841 773 ft 34 kts 90°
2026-04-26 14:42 56.74659 60.81292 773 ft 37 kts 90°
2026-04-26 14:42 56.74658 60.81767 773 ft 34 kts 90°
2026-04-26 14:43 56.74659 60.82090 773 ft 16 kts 91°
2026-04-26 14:43 56.74590 60.82202 773 ft 15 kts 182°
2026-04-26 14:43 56.74486 60.82204 776 ft 15 kts 181°
2026-04-26 14:43 56.74385 60.82189 774 ft 15 kts 186°
2026-04-26 14:44 56.74283 60.82174 772 ft 14 kts 182°
2026-04-26 14:44 56.74186 60.82163 772 ft 14 kts 185°
2026-04-26 14:44 56.74090 60.82130 767 ft 15 kts 221°
2026-04-26 14:44 56.74071 60.81951 767 ft 15 kts 274°
2026-04-26 14:45 56.74072 60.81921 767 ft 0 kts 274°
2026-04-26 14:45 56.74072 60.81914 767 ft 4 kts 274°
2026-04-26 14:45 56.74080 60.81729 768 ft 28 kts 274°
2026-04-26 14:46 56.74103 60.81148 772 ft 78 kts 273°
2026-04-26 14:46 56.74161 60.79682 776 ft 151 kts 274°
2026-04-26 14:46 56.74246 60.77627 1497 ft 160 kts 272°
2026-04-26 14:46 56.74274 60.75650 2752 ft 157 kts 272°
2026-04-26 14:47 56.74310 60.73521 3456 ft 179 kts 272°
2026-04-26 14:47 56.74339 60.71184 4082 ft 195 kts 271°
2026-04-26 14:47 56.74372 60.68586 4634 ft 213 kts 271°
2026-04-26 14:47 56.74408 60.65710 5003 ft 245 kts 271°
2026-04-26 14:48 56.74452 60.62417 5580 ft 267 kts 271°
2026-04-26 14:48 56.74495 60.59132 7108 ft 250 kts 271°
2026-04-26 14:48 56.74525 60.56005 8382 ft 247 kts 270°
2026-04-26 14:48 56.74627 60.52842 9246 ft 253 kts 276°
2026-04-26 14:49 56.74923 60.49633 9987 ft 260 kts 280°
2026-04-26 14:49 56.75320 60.46320 10376 ft 280 kts 281°
2026-04-26 14:49 56.75757 60.42712 10575 ft 304 kts 281°
2026-04-26 14:49 56.76203 60.38879 10938 ft 320 kts 281°
2026-04-26 14:50 56.76653 60.34870 11637 ft 325 kts 281°
2026-04-26 14:50 56.77095 60.30809 12441 ft 327 kts 281°
2026-04-26 14:50 56.77532 60.26715 13202 ft 331 kts 281°
2026-04-26 14:50 56.77969 60.22570 13929 ft 335 kts 281°
2026-04-26 14:51 56.78406 60.18387 14645 ft 337 kts 281°
2026-04-26 14:51 56.78843 60.14176 15369 ft 339 kts 281°
2026-04-26 14:51 56.79220 60.09919 16071 ft 341 kts 279°
2026-04-26 14:51 56.79505 60.05595 16737 ft 344 kts 277°
2026-04-26 14:52 56.79737 60.01235 17450 ft 346 kts 277°
2026-04-26 14:52 56.79962 59.96840 18144 ft 349 kts 277°
2026-04-26 14:52 56.80197 59.92412 18719 ft 352 kts 277°
2026-04-26 14:52 56.80446 59.87949 19316 ft 354 kts 278°
2026-04-26 14:53 56.80703 59.83477 19917 ft 355 kts 278°
2026-04-26 14:53 56.80966 59.78972 20475 ft 358 kts 278°
2026-04-26 14:53 56.81229 59.74504 21040 ft 360 kts 278°
2026-04-26 14:53 56.81499 59.69883 21609 ft 362 kts 278°
2026-04-26 14:54 56.81762 59.65362 22162 ft 365 kts 278°
2026-04-26 14:54 56.82030 59.60742 22709 ft 367 kts 278°
2026-04-26 14:54 56.82298 59.56091 23239 ft 369 kts 278°
2026-04-26 14:54 56.82564 59.51410 23718 ft 371 kts 279°
2026-04-26 14:55 56.82830 59.46705 24125 ft 374 kts 279°
2026-04-26 14:55 56.83096 59.41969 24521 ft 376 kts 279°
2026-04-26 14:55 56.83361 59.37199 24919 ft 378 kts 278°
2026-04-26 14:55 56.83626 59.32404 25319 ft 381 kts 278°
2026-04-26 14:56 56.83890 59.27594 25718 ft 382 kts 279°
2026-04-26 14:56 56.84154 59.22765 26140 ft 383 kts 279°
2026-04-26 14:56 56.84418 59.17909 26511 ft 385 kts 279°
2026-04-26 14:56 56.84682 59.13028 26873 ft 387 kts 279°
2026-04-26 14:57 56.84944 59.08115 27241 ft 389 kts 279°
2026-04-26 14:57 56.85109 59.04846 27482 ft 391 kts 278°
2026-04-26 14:57 56.85297 58.99876 27872 ft 393 kts 276°
2026-04-26 14:57 56.85401 58.94883 28237 ft 395 kts 275°
2026-04-26 14:58 56.85459 58.89859 28569 ft 397 kts 275°
2026-04-26 14:58 56.85507 58.84788 28885 ft 399 kts 275°
2026-04-26 14:58 56.85561 58.79705 29201 ft 401 kts 275°
2026-04-26 14:58 56.85625 58.74606 29524 ft 402 kts 275°
2026-04-26 14:59 56.85696 58.69488 29924 ft 402 kts 276°
2026-04-26 14:59 56.85771 58.64401 30320 ft 400 kts 275°
2026-04-26 14:59 56.85849 58.59313 30558 ft 402 kts 275°
2026-04-26 14:59 56.85901 58.55931 30687 ft 404 kts 275°
2026-04-26 15:00 56.86007 58.49050 31028 ft 405 kts 275°
2026-04-26 15:00 56.86081 58.43903 31329 ft 405 kts 275°
2026-04-26 15:00 56.86155 58.38750 31569 ft 407 kts 274°
2026-04-26 15:00 56.86227 58.33567 31798 ft 408 kts 274°
2026-04-26 15:01 56.86297 58.28382 32059 ft 409 kts 274°
2026-04-26 15:01 56.86364 58.23180 32313 ft 410 kts 274°
2026-04-26 15:01 56.86429 58.17958 32560 ft 411 kts 273°
2026-04-26 15:01 56.86493 58.12718 32818 ft 412 kts 273°
2026-04-26 15:02 56.86553 58.07539 33052 ft 413 kts 273°
2026-04-26 15:02 56.86612 58.02282 33295 ft 414 kts 273°
2026-04-26 15:02 56.86669 57.97013 33542 ft 415 kts 272°
2026-04-26 15:02 56.86724 57.91732 33781 ft 416 kts 272°
2026-04-26 15:03 56.86776 57.86446 34086 ft 414 kts 272°
2026-04-26 15:03 56.86826 57.81201 34317 ft 414 kts 272°
2026-04-26 15:03 56.86874 57.75925 34455 ft 416 kts 272°
2026-04-26 15:03 56.86920 57.70618 34614 ft 417 kts 272°
2026-04-26 15:04 56.86964 57.65324 34821 ft 417 kts 272°
2026-04-26 15:04 56.87006 57.60005 35011 ft 418 kts 272°
2026-04-26 15:04 56.87046 57.54675 35147 ft 420 kts 272°
2026-04-26 15:04 56.87084 57.49330 35300 ft 422 kts 272°
2026-04-26 15:05 56.87119 57.43957 35479 ft 422 kts 271°
2026-04-26 15:05 56.87141 57.40407 35613 ft 422 kts 271°
2026-04-26 15:05 56.87183 57.33293 35830 ft 423 kts 271°
2026-04-26 15:06 56.87238 57.22481 35919 ft 427 kts 271°
2026-04-26 15:06 56.87283 57.11688 35916 ft 422 kts 271°
2026-04-26 15:07 56.87332 56.95752 35920 ft 415 kts 271°
2026-04-26 15:07 56.87355 56.85243 35937 ft 413 kts 271°
2026-04-26 15:08 56.87370 56.74664 35935 ft 419 kts 271°
2026-04-26 15:08 56.87375 56.63925 35930 ft 424 kts 271°
2026-04-26 15:09 56.87371 56.53132 35925 ft 425 kts 271°
2026-04-26 15:09 56.87365 56.42448 35906 ft 417 kts 271°
2026-04-26 15:10 56.87445 56.33630 35919 ft 413 kts 272°
2026-04-26 15:10 56.87588 56.21401 35926 ft 414 kts 272°
2026-04-26 15:11 56.87685 56.10847 35919 ft 415 kts 272°
2026-04-26 15:11 56.87768 56.00276 35922 ft 416 kts 271°
2026-04-26 15:12 56.87405 55.89692 35902 ft 420 kts 257°
2026-04-26 15:12 56.85259 55.79702 35911 ft 424 kts 248°
2026-04-26 15:13 56.82783 55.70018 35916 ft 423 kts 249°
2026-04-26 15:13 56.80578 55.60081 35923 ft 421 kts 251°
2026-04-26 15:14 56.78421 55.50152 35915 ft 421 kts 250°
2026-04-26 15:14 56.76183 55.40301 35917 ft 420 kts 250°
2026-04-26 15:15 56.73901 55.30510 35906 ft 419 kts 250°
2026-04-26 15:15 56.71611 55.20774 35918 ft 418 kts 249°
2026-04-26 15:16 56.69319 55.11068 35919 ft 417 kts 249°
2026-04-26 15:16 56.67024 55.01384 35915 ft 417 kts 249°
2026-04-26 15:17 56.65111 54.93343 35922 ft 416 kts 249°
2026-04-26 15:17 56.62414 54.82054 35915 ft 417 kts 249°
2026-04-26 15:18 56.60096 54.72403 35909 ft 417 kts 249°
2026-04-26 15:18 56.57785 54.62821 35914 ft 417 kts 249°
2026-04-26 15:19 56.55450 54.53180 35910 ft 417 kts 249°
2026-04-26 15:19 56.53109 54.43556 35907 ft 418 kts 249°
2026-04-26 15:20 56.50760 54.33934 35907 ft 418 kts 249°
2026-04-26 15:20 56.48395 54.24309 35887 ft 418 kts 248°
2026-04-26 15:21 56.46015 54.14698 35904 ft 418 kts 248°
2026-04-26 15:21 56.43630 54.05099 35901 ft 418 kts 248°
2026-04-26 15:22 56.41236 53.95503 35900 ft 419 kts 248°
2026-04-26 15:22 56.38846 53.85926 35895 ft 419 kts 248°
2026-04-26 15:23 56.36466 53.76405 35899 ft 419 kts 248°
2026-04-26 15:23 56.34063 53.66834 35897 ft 418 kts 248°
2026-04-26 15:24 56.31645 53.57303 35891 ft 418 kts 248°
2026-04-26 15:24 56.29194 53.47808 35894 ft 418 kts 247°
2026-04-26 15:25 56.27152 53.39933 35885 ft 418 kts 247°
2026-04-26 15:25 56.24290 53.28917 35885 ft 417 kts 247°
2026-04-26 15:26 56.21827 53.19469 35883 ft 417 kts 247°
2026-04-26 15:26 56.19363 53.10056 35885 ft 416 kts 247°
2026-04-26 15:27 56.16888 53.00645 35885 ft 416 kts 247°
2026-04-26 15:27 56.14411 52.91260 35883 ft 416 kts 247°
2026-04-26 15:28 56.11943 52.81948 35877 ft 415 kts 247°
2026-04-26 15:28 56.09459 52.72609 35879 ft 415 kts 247°
2026-04-26 15:29 56.06968 52.63285 35878 ft 415 kts 246°
2026-04-26 15:30 56.01988 52.44630 35879 ft 415 kts 247°
2026-04-26 15:30 55.99497 52.35323 35874 ft 416 kts 246°
2026-04-26 15:31 55.95740 52.21366 35864 ft 415 kts 246°
2026-04-26 15:32 55.92398 52.09020 35885 ft 415 kts 246°
2026-04-26 15:32 55.89464 51.98238 35864 ft 416 kts 246°
2026-04-26 15:33 55.86932 51.88976 35873 ft 415 kts 246°
2026-04-26 15:33 55.84397 51.79738 35877 ft 415 kts 246°
2026-04-26 15:34 55.81854 51.70505 35856 ft 415 kts 245°
2026-04-26 15:34 55.79310 51.61306 35862 ft 414 kts 245°
2026-04-26 15:35 55.76779 51.52192 35858 ft 413 kts 245°
2026-04-26 15:35 55.74231 51.43047 35857 ft 413 kts 245°
2026-04-26 15:36 55.71794 51.33803 35852 ft 413 kts 248°
2026-04-26 15:36 55.69612 51.24398 35844 ft 411 kts 249°
2026-04-26 15:37 55.67456 51.15028 35844 ft 410 kts 249°
2026-04-26 15:37 55.65268 51.05715 35843 ft 409 kts 248°
2026-04-26 15:38 55.63061 50.96448 35844 ft 408 kts 248°
2026-04-26 15:38 55.60859 50.87258 35848 ft 408 kts 248°
2026-04-26 15:39 55.58635 50.78017 35842 ft 408 kts 248°
2026-04-26 15:39 55.56783 50.70349 35847 ft 408 kts 248°
2026-04-26 15:40 55.54167 50.59562 35848 ft 409 kts 248°
2026-04-26 15:40 55.51918 50.50331 35842 ft 409 kts 248°
2026-04-26 15:41 55.49660 50.41101 35827 ft 410 kts 248°
2026-04-26 15:41 55.47406 50.31924 35838 ft 410 kts 248°
2026-04-26 15:42 55.45127 50.22686 35835 ft 411 kts 247°
2026-04-26 15:42 55.42842 50.13451 35827 ft 411 kts 247°
2026-04-26 15:43 55.40556 50.04245 35826 ft 410 kts 248°
2026-04-26 15:43 55.39124 49.94596 35830 ft 409 kts 267°
2026-04-26 15:44 55.39151 49.89583 35826 ft 410 kts 271°
2026-04-26 15:44 55.39860 49.74567 35812 ft 411 kts 273°
2026-04-26 15:45 55.40604 49.59562 35799 ft 410 kts 272°
2026-04-26 15:46 55.41316 49.44628 35804 ft 410 kts 272°
2026-04-26 15:46 55.41629 49.37939 35802 ft 410 kts 272°
2026-04-26 15:47 55.42383 49.21312 35794 ft 410 kts 272°
2026-04-26 15:48 55.42826 49.11311 35788 ft 410 kts 272°
2026-04-26 15:48 55.43262 49.01298 35789 ft 410 kts 272°
2026-04-26 15:49 55.43690 48.91284 35787 ft 410 kts 272°
2026-04-26 15:49 55.44110 48.81256 35765 ft 410 kts 271°
2026-04-26 15:50 55.44519 48.71307 35779 ft 410 kts 271°
2026-04-26 15:50 55.44924 48.61284 35762 ft 410 kts 271°
2026-04-26 15:51 55.45319 48.51274 35758 ft 410 kts 271°
2026-04-26 15:51 55.45705 48.41262 35760 ft 410 kts 271°
2026-04-26 15:52 55.46084 48.31235 35756 ft 410 kts 271°
2026-04-26 15:52 55.46452 48.21280 35785 ft 409 kts 271°
2026-04-26 15:53 55.46816 48.11264 35756 ft 409 kts 270°
2026-04-26 15:53 55.47170 48.01241 35727 ft 409 kts 270°
2026-04-26 15:54 55.47516 47.91247 35740 ft 408 kts 270°
2026-04-26 15:54 55.47854 47.81245 35743 ft 408 kts 270°
2026-04-26 15:55 55.48183 47.71254 35724 ft 408 kts 270°
2026-04-26 15:55 55.48505 47.61244 35731 ft 408 kts 270°
2026-04-26 15:56 55.48818 47.51231 35724 ft 409 kts 270°
2026-04-26 15:56 55.49122 47.41270 35723 ft 410 kts 269°
2026-04-26 15:57 55.49422 47.31204 35719 ft 410 kts 269°
2026-04-26 15:57 55.49713 47.21160 35706 ft 410 kts 269°
2026-04-26 15:58 55.49995 47.11120 35703 ft 409 kts 269°
2026-04-26 15:58 55.50268 47.01154 35706 ft 409 kts 269°
2026-04-26 15:59 55.50535 46.91124 35699 ft 409 kts 269°
2026-04-26 15:59 55.50795 46.81082 35692 ft 409 kts 269°
2026-04-26 16:00 55.51047 46.71031 35695 ft 409 kts 269°
2026-04-26 16:00 55.51288 46.61070 35667 ft 410 kts 268°
2026-04-26 16:00 55.51408 46.55997 35132 ft 415 kts 268°
2026-04-26 16:01 55.51528 46.50925 34533 ft 412 kts 268°
2026-04-26 16:01 55.51644 46.45887 33946 ft 410 kts 268°
2026-04-26 16:01 55.51782 46.40883 33523 ft 403 kts 269°
2026-04-26 16:01 55.51966 46.36003 33253 ft 394 kts 270°
2026-04-26 16:02 55.52164 46.31224 32847 ft 388 kts 270°
2026-04-26 16:02 55.52361 46.26506 32394 ft 383 kts 270°
2026-04-26 16:02 55.52551 46.21847 31934 ft 379 kts 270°
2026-04-26 16:02 55.52672 46.18789 31645 ft 376 kts 270°
2026-04-26 16:03 55.52907 46.12672 31059 ft 371 kts 270°
2026-04-26 16:03 55.53077 46.08141 30630 ft 368 kts 270°
2026-04-26 16:03 55.53243 46.03661 30212 ft 364 kts 270°
2026-04-26 16:03 55.53403 45.99263 29806 ft 362 kts 270°
2026-04-26 16:04 55.53563 45.94827 29358 ft 359 kts 269°
2026-04-26 16:04 55.53719 45.90454 28879 ft 356 kts 270°
2026-04-26 16:04 55.53873 45.86122 28455 ft 351 kts 270°
2026-04-26 16:04 55.54023 45.81839 28028 ft 347 kts 270°
2026-04-26 16:05 55.54169 45.77606 27606 ft 344 kts 270°
2026-04-26 16:05 55.54311 45.73472 27186 ft 341 kts 270°
2026-04-26 16:05 55.54454 45.69248 26775 ft 338 kts 270°
2026-04-26 16:05 55.54591 45.65166 26363 ft 336 kts 270°
2026-04-26 16:06 55.54727 45.61053 25949 ft 336 kts 270°
2026-04-26 16:06 55.54863 45.56877 25549 ft 347 kts 269°
2026-04-26 16:06 55.55001 45.52559 25122 ft 355 kts 269°
2026-04-26 16:06 55.55141 45.48218 24683 ft 352 kts 269°
2026-04-26 16:07 55.55280 45.43916 24253 ft 349 kts 269°
2026-04-26 16:07 55.55416 45.39651 23835 ft 346 kts 269°
2026-04-26 16:07 55.55549 45.35420 23413 ft 344 kts 269°
2026-04-26 16:07 55.55678 45.31213 22967 ft 342 kts 269°
2026-04-26 16:08 55.55806 45.27029 22496 ft 339 kts 269°
2026-04-26 16:08 55.55889 45.24281 22208 ft 337 kts 269°
2026-04-26 16:08 55.56054 45.18782 21670 ft 333 kts 269°
2026-04-26 16:08 55.56175 45.14702 21241 ft 331 kts 269°
2026-04-26 16:09 55.56291 45.10706 20839 ft 328 kts 269°
2026-04-26 16:09 55.56407 45.06694 20444 ft 326 kts 269°
2026-04-26 16:09 55.56521 45.02713 20038 ft 323 kts 269°
2026-04-26 16:09 55.56633 44.98753 19650 ft 321 kts 269°
2026-04-26 16:10 55.56742 44.94821 19263 ft 319 kts 269°
2026-04-26 16:10 55.56959 44.90929 18867 ft 320 kts 278°
2026-04-26 16:10 55.57854 44.87299 18448 ft 331 kts 304°
2026-04-26 16:10 55.59594 44.84541 17998 ft 343 kts 322°
2026-04-26 16:11 55.61673 44.82423 17544 ft 344 kts 326°
2026-04-26 16:11 55.63794 44.80458 17120 ft 343 kts 327°
2026-04-26 16:11 55.65900 44.78467 16716 ft 341 kts 325°
2026-04-26 16:11 55.67949 44.76394 16320 ft 338 kts 324°
2026-04-26 16:12 55.69972 44.74295 15939 ft 336 kts 324°
2026-04-26 16:12 55.71985 44.72205 15569 ft 335 kts 324°
2026-04-26 16:12 55.75985 44.68075 14804 ft 333 kts 324°
2026-04-26 16:13 55.77991 44.66015 14422 ft 333 kts 324°
2026-04-26 16:13 55.79995 44.63959 14047 ft 332 kts 324°
2026-04-26 16:13 55.82000 44.61903 13671 ft 332 kts 324°
2026-04-26 16:13 55.84001 44.59851 13261 ft 333 kts 324°
2026-04-26 16:14 55.86006 44.57792 12849 ft 332 kts 324°
2026-04-26 16:14 55.87997 44.55747 12455 ft 330 kts 324°
2026-04-26 16:14 55.91958 44.51669 11692 ft 327 kts 324°
2026-04-26 16:15 55.93927 44.49639 11307 ft 326 kts 324°
2026-04-26 16:15 55.95885 44.47618 10975 ft 324 kts 324°
2026-04-26 16:15 55.97837 44.45599 10575 ft 325 kts 324°
2026-04-26 16:16 56.01714 44.41583 9947 ft 319 kts 324°
2026-04-26 16:16 56.03612 44.39618 9798 ft 311 kts 324°
2026-04-26 16:16 56.05462 44.37700 9657 ft 304 kts 324°
2026-04-26 16:16 56.07272 44.35820 9478 ft 299 kts 324°
2026-04-26 16:17 56.09065 44.33950 9167 ft 298 kts 324°
2026-04-26 16:17 56.10854 44.32082 8867 ft 297 kts 324°
2026-04-26 16:17 56.12639 44.30218 8565 ft 296 kts 324°
2026-04-26 16:17 56.14417 44.28358 8276 ft 296 kts 324°
2026-04-26 16:18 56.16199 44.26494 7981 ft 296 kts 324°
2026-04-26 16:18 56.19744 44.22777 7372 ft 295 kts 324°
2026-04-26 16:19 56.23258 44.19087 6789 ft 294 kts 324°
2026-04-26 16:19 56.25045 44.17209 6486 ft 293 kts 324°
2026-04-26 16:19 56.27967 44.14133 5999 ft 293 kts 324°
2026-04-26 16:20 56.30276 44.11744 5562 ft 285 kts 327°
2026-04-26 16:20 56.33862 44.08972 4973 ft 275 kts 334°
2026-04-26 16:20 56.35641 44.07771 4713 ft 271 kts 333°
2026-04-26 16:21 56.37397 44.06533 4464 ft 271 kts 333°
2026-04-26 16:21 56.39145 44.05259 4214 ft 271 kts 332°
2026-04-26 16:21 56.40884 44.03971 3950 ft 267 kts 330°
2026-04-26 16:21 56.42368 44.02161 3667 ft 250 kts 300°
2026-04-26 16:22 56.43046 43.99448 3461 ft 230 kts 272°
2026-04-26 16:22 56.43125 43.96691 3332 ft 217 kts 255°
2026-04-26 16:22 56.42712 43.94140 3198 ft 204 kts 239°
2026-04-26 16:22 56.42125 43.91842 3078 ft 206 kts 239°
2026-04-26 16:23 56.41542 43.89471 3009 ft 203 kts 240°
2026-04-26 16:23 56.41019 43.87184 3012 ft 190 kts 240°
2026-04-26 16:23 56.40362 43.85275 2978 ft 171 kts 215°
2026-04-26 16:23 56.39298 43.84650 3005 ft 159 kts 186°
2026-04-26 16:24 56.38255 43.84291 2995 ft 145 kts 197°
2026-04-26 16:24 56.37306 43.83832 2864 ft 139 kts 193°
2026-04-26 16:24 56.36390 43.83440 2816 ft 128 kts 192°
2026-04-26 16:24 56.35519 43.83149 2604 ft 127 kts 193°
2026-04-26 16:25 56.34693 43.82857 2479 ft 125 kts 193°
2026-04-26 16:25 56.33845 43.82539 2346 ft 121 kts 193°
2026-04-26 16:25 56.32974 43.82218 2048 ft 129 kts 193°
2026-04-26 16:25 56.32099 43.81905 1867 ft 130 kts 190°
2026-04-26 16:26 56.31238 43.81591 1765 ft 127 kts 189°
2026-04-26 16:26 56.30642 43.81372 1605 ft 133 kts 189°
2026-04-26 16:26 56.29404 43.80935 1398 ft 138 kts 192°
2026-04-26 16:26 56.28481 43.80592 1228 ft 138 kts 189°
2026-04-26 16:27 56.27522 43.80260 1017 ft 145 kts 188°
2026-04-26 16:27 56.26515 43.79868 826 ft 150 kts 190°
2026-04-26 16:27 56.25497 43.79473 557 ft 147 kts 188°
2026-04-26 16:27 56.24521 43.79142 365 ft 143 kts 190°
2026-04-26 16:28 56.23557 43.78791 263 ft 135 kts 190°
2026-04-26 16:28 56.22793 43.78509 266 ft 88 kts 191°
2026-04-26 16:28 56.22300 43.78329 266 ft 53 kts 191°
2026-04-26 16:28 56.22120 43.78264 266 ft 20 kts 191°
2026-04-26 16:29 56.22002 43.78222 266 ft 7 kts 189°
2026-04-26 16:29 56.21958 43.78252 265 ft 7 kts 130°
2026-04-26 16:29 56.21942 43.78333 266 ft 7 kts 103°
2026-04-26 16:29 56.21932 43.78416 266 ft 7 kts 102°
2026-04-26 16:30 56.21922 43.78498 265 ft 7 kts 102°
2026-04-26 16:30 56.21914 43.78570 265 ft 5 kts 102°
2026-04-26 16:30 56.21915 43.78635 265 ft 5 kts 68°
2026-04-26 16:30 56.21933 43.78690 265 ft 5 kts 49°
2026-04-26 16:31 56.21951 43.78742 265 ft 5 kts 77°
2026-04-26 16:31 56.21949 43.78798 265 ft 4 kts 99°
2026-04-26 16:31 56.21947 43.78819 265 ft 0 kts 100°